DELTA 1 DEB, 1312

Orbit data source: Space-Track

DELTA 1 DEB, 1312 is space debris in SSO originally from a launch on Fri, 22 Jan 1965 UTC launched from the Air Force Eastern Test Range (AFETR). Debris objects in space refer to the collection of defunct objects orbiting the Earth. Examples of debris include non-operational satellites, rocket bodies, and fragments generated from explosions, collisions, or faulty payload assembly.

Loading next visibility...
Identifier
1312, 1965-004C
Orbit
SSO
Last TLE update
2 days ago
Origin
Manufacturer
Unknown
Mission
Spacecraft
Bus & Motor
Unknown
Mass
~1 kg wet, ~1 kg dry
Launch date (UTC)
1965-01-22 (60 years ago)
Launch vehicle
Unknown
Launch site
Air Force Eastern Test Range (AFETR)
Object type
Payload
Rocket body
Debris
Shape & HBR
Box + 1 Cable, 3.5 m
Radar Cross Section
6.125 m², Small (<0.1 m²)

Expand to show TLE details & history

TLE from 2 days ago
0 DELTA 1 DEB
1 01312U 65004C   25118.44703990  .00000137  00000-0  15986-3 0  9998
2 01312  96.3388 307.4493 1116132 320.7788  31.7318 12.28115265675673
Epoch: 2025-04-28T10:43Z
Definitive object data (Epoch: 2025-04-28T10:43:44.247Z)
Latitude
0.00003°
Longitude
-70.146°
Altitude
838.443 km
Speed
7.764 km/s
True Right ascension
20h 29m 47s
True Declination
0° 00' 00"
Sunlit
Object was in daylight at TLE epoch
Visualization TLE readout
Latitude
-31.62125°
Longitude
107.25987°
Altitude
1,681.545 km
Speed
6.983 km/s
Apparent Right ascension
11h 13m 15s
Apparent Declination
-65° 58' 41"
Sunlit
Object is in daylight
Visualization observer readout
Local Sidereal Time
06:14:37
Azimuth
152.976° SSE
Elevation
-30.23°
Doppler factor
1
Orbital elements
Apogee altitude
2,440.077 km
Perigee altitude
669.265 km
Semi-major axis
7,932.808 km
Eccentricity
0.1116132
Inclination
96.3388°
RAAN
307.4493°
Arg. of periapsis
320.7788°
True anomaly
39.33591°
Mean anomaly
31.7318°
Eccentric anomaly
35.43991°
Mean motion
3.07187 °/min
BSTAR
0.00015986
Orbital period
117.19 mins
Loading maneuver chart data...
Loading SW <> Apogee altitude chart data...
Loading historical data...
Loading historical data...
Loading historical data...
Loading historical data...
Loading historical data...
Loading historical data...
Loading historical data...
Other satellites on launch #4 in the year 1965 (1965-01-22 UTC)

DELTA 1 DEB Visibility forecast

Observer location: undefined°, undefined°

Span
Click to sort rows by Start time (UTC) header in descending order
Start Az.
Max El. time (UTC)
Max El. Az.
Max El.
End time (UTC)
End Az.
23 mins2025-04-30 23:57:37.081Z21.967° NNE2025-05-01 00:09:37.081Z93.209° ESE36.01°2025-05-01 00:20:37.081Z159.177° S
24 mins2025-05-01 01:53:37.081Z2.858° NNE2025-05-01 02:04:37.081Z298.399° NW41.097°2025-05-01 02:17:37.081Z214.772° SW
14 mins2025-05-01 03:51:37.081Z341.995° N2025-05-01 03:57:37.081Z312.562° NW17.91°2025-05-01 04:05:37.081Z274.591° WNW
13 mins2025-05-01 11:12:37.081Z111.06° ESE2025-05-01 11:17:37.081Z60.205° ENE27.599°2025-05-01 11:25:37.081Z4.647° NNE
14 mins2025-05-01 13:07:37.081Z195.203° SSW2025-05-01 13:12:37.081Z262.494° W39.307°2025-05-01 13:21:37.081Z342.324° N
|